QTR806 OTHH-RJAA

Flight info

Callsign QTR806
Flight time N/A
Altitude 35000
Route BUNDU B415 KUGTO Q415 TONVO/N0496F370 A777 VAXIM L301 RASKI L639 BPL/N0492F390 A791 CEA B465 CTG A599 LINSO/K0909S1190 A599 SGM A581 AGTIS/K0900S1250 A581 WHA R343 PK W116 JTN G327 BOLEX/N0485F410 DCT IKEDO Y590 BEDAR Y591 FUE Y23 KASTE Y81 RUTAS
Aircraft A359/H-SDE2E3GHIJ3J4J5LM1ORWXY/LB1D1

Departure

Time 2026-05-07 04:28
Airport Hamad International Airport (OTHH)

Arrival

Time N/A
Airport Narita International Airport (RJAA)
Time Latitude Longitude Altitude Speed Heading
2026-05-07 04:06 25.26400 51.61136 28 ft 0 kts 72°
2026-05-07 04:16 25.26399 51.61132 28 ft 3 kts 72°
2026-05-07 04:16 25.26390 51.61104 28 ft 4 kts 72°
2026-05-07 04:16 25.26383 51.61079 26 ft 4 kts 71°
2026-05-07 04:16 25.26373 51.61054 26 ft 4 kts 50°
2026-05-07 04:17 25.26357 51.61039 26 ft 4 kts 14°
2026-05-07 04:17 25.26337 51.61038 26 ft 4 kts 338°
2026-05-07 04:17 25.26313 51.61051 27 ft 4 kts 329°
2026-05-07 04:17 25.26291 51.61064 26 ft 1 kts 338°
2026-05-07 04:18 25.26290 51.61064 26 ft 1 kts 338°
2026-05-07 04:20 25.26301 51.61060 25 ft 6 kts 338°
2026-05-07 04:21 25.26482 51.60980 28 ft 20 kts 338°
2026-05-07 04:21 25.26594 51.60883 28 ft 24 kts 296°
2026-05-07 04:21 25.26666 51.60703 28 ft 29 kts 293°
2026-05-07 04:21 25.26660 51.60513 28 ft 23 kts 269°
2026-05-07 04:22 25.26794 51.60408 28 ft 28 kts 339°
2026-05-07 04:22 25.26965 51.60336 28 ft 19 kts 354°
2026-05-07 04:22 25.27051 51.60451 28 ft 24 kts 70°
2026-05-07 04:22 25.27122 51.60642 28 ft 28 kts 68°
2026-05-07 04:23 25.27201 51.60859 28 ft 32 kts 69°
2026-05-07 04:23 25.27278 51.61077 28 ft 30 kts 68°
2026-05-07 04:23 25.27358 51.61299 28 ft 28 kts 66°
2026-05-07 04:23 25.27400 51.61414 28 ft 7 kts 53°
2026-05-07 04:24 25.27466 51.61422 28 ft 13 kts
2026-05-07 04:24 25.27535 51.61512 28 ft 20 kts 71°
2026-05-07 04:24 25.27475 51.61628 28 ft 23 kts 159°
2026-05-07 04:24 25.27308 51.61701 28 ft 18 kts 159°
2026-05-07 04:25 25.27190 51.61751 28 ft 23 kts 158°
2026-05-07 04:25 25.27019 51.61828 28 ft 30 kts 158°
2026-05-07 04:25 25.26825 51.61914 27 ft 30 kts 158°
2026-05-07 04:25 25.26648 51.61992 28 ft 30 kts 158°
2026-05-07 04:26 25.26446 51.62080 28 ft 32 kts 158°
2026-05-07 04:26 25.26240 51.62170 29 ft 31 kts 158°
2026-05-07 04:26 25.26048 51.62254 29 ft 28 kts 158°
2026-05-07 04:26 25.26014 51.62357 29 ft 19 kts 72°
2026-05-07 04:27 25.26107 51.62428 28 ft 20 kts 341°
2026-05-07 04:27 25.26339 51.62327 29 ft 63 kts 338°
2026-05-07 04:27 25.26926 51.62072 30 ft 117 kts 338°
2026-05-07 04:27 25.27827 51.61675 29 ft 162 kts 338°
2026-05-07 04:28 25.28571 51.61346 138 ft 179 kts 338°
2026-05-07 04:28 25.29661 51.60843 930 ft 168 kts 340°
2026-05-07 04:28 25.30781 51.60360 1436 ft 181 kts 341°
2026-05-07 04:28 25.32434 51.59643 1728 ft 204 kts 341°
2026-05-07 04:29 25.33817 51.59181 2010 ft 212 kts 359°
2026-05-07 04:29 25.34796 51.59404 2260 ft 217 kts 27°
2026-05-07 04:29 25.35803 51.60614 2742 ft 221 kts 67°
2026-05-07 04:29 25.35912 51.62314 3298 ft 225 kts 95°
2026-05-07 04:30 25.35767 51.64018 3796 ft 227 kts 88°
2026-05-07 04:30 25.35882 51.65765 4295 ft 229 kts 78°
2026-05-07 04:30 25.36227 51.67480 4827 ft 229 kts 72°
2026-05-07 04:30 25.36679 51.69176 5339 ft 231 kts 74°
2026-05-07 04:31 25.36793 51.70969 5771 ft 240 kts 95°
2026-05-07 04:31 25.36465 51.72842 5992 ft 257 kts 102°
2026-05-07 04:31 25.36028 51.74827 6217 ft 273 kts 102°
2026-05-07 04:31 25.35580 51.76897 6601 ft 280 kts 101°
2026-05-07 04:32 25.35141 51.78987 7076 ft 284 kts 102°
2026-05-07 04:32 25.34697 51.81156 7624 ft 287 kts 101°
2026-05-07 04:32 25.34257 51.83322 8188 ft 290 kts 101°
2026-05-07 04:32 25.33818 51.85507 8757 ft 293 kts 101°
2026-05-07 04:33 25.33382 51.87691 9317 ft 297 kts 101°
2026-05-07 04:33 25.32937 51.89931 9890 ft 300 kts 101°